Voltar ao catálogo

ATLAS 5 CENTAUR DEB

AtivoHEO
NORAD 43973·DEBRIS·🇺🇸 United States

Lançado Sep 17, 2014 de Cape Canaveral Space Force Station

Loading…

Próximas Passagens (próximas 24 horas)

TLE

EnvelhecendoSource: Space-Track

Época: Sep 4, 2026, 19:10 UTC

1 43973U 14055AC  26247.79909951 -.00000201  00000-0  00000-0 0  9995
2 43973  21.0563  99.3388 5012150 251.4193  49.4176  1.92502075 56399

Acompanhe ATLAS 5 CENTAUR DEB em tempo real com AllMySat

Download on the App Store